Theta_e
291 292 294 295 296 296 296 300 305 307 303 303 303 303 302 301 300 299 295 292 291 289 288 288 288 288 287 285 285 284 283 283 280 278 278 279 279 280 280 280 280 279 280
291 292 293 294 295 296 295 298 305 303 300 300 300 300 300 298 297 295 292 292 290 288 287 287 287 288 285 284 283 282 282 281 279 277 277 278 278 279 279 278 279 281 280
291 291 291 293 295 295 296 299 305 299 298 298 298 297 297 296 295 294 293 291 289 288 288 288 287 285 283 282 282 282 280 280 279 278 276 277 277 277 277 278 278 278 279
290 291 294 294 295 295 296 299 299 297 297 296 296 295 295 294 293 291 289 289 289 289 290 288 286 284 283 282 282 281 280 279 278 277 276 276 276 277 277 276 276 277 277
292 296 296 296 296 296 297 296 294 295 294 294 293 292 291 291 290 288 288 289 289 288 286 286 285 284 285 284 282 280 279 278 277 276 276 276 276 276 276 276 275 275 275
293 293 294 294 294 293 292 291 290 290 290 289 289 288 288 289 290 291 290 289 288 287 285 284 284 283 284 285 285 284 282 279 278 277 276 275 276 276 276 275 274 271 270
290 290 291 291 289 289 289 288 287 286 287 286 286 286 285 287 291 291 290 288 287 286 284 283 282 282 283 283 286 286 284 285 282 278 276 276 275 276 275 273 272 271 272
285 286 287 287 287 287 287 286 286 286 286 286 286 286 286 289 291 289 288 286 285 285 284 284 282 281 282 282 282 281 280 281 282 281 279 278 277 278 277 276 275 273 271
284 284 285 286 285 286 285 285 286 285 285 285 286 287 287 288 290 289 287 285 284 283 283 282 281 281 283 284 279 279 278 279 283 286 285 285 285 285 280 274 268 265 265
284 284 285 285 285 284 285 285 285 286 285 286 285 286 286 286 289 289 287 285 283 281 280 280 281 280 284 285 278 278 277 278 278 277 278 281 283 281 284 275 272 268 265
284 284 284 285 284 285 285 285 285 285 285 284 285 285 285 285 287 289 288 284 282 280 280 279 280 284 284 285 285 279 279 278 278 276 274 272 270 272 275 277 274 273 266
284 284 284 284 284 285 285 285 285 285 285 284 284 284 284 284 286 288 287 284 284 281 280 279 279 284 285 286 285 285 285 284 273 270 269 272 273 273 273 273 273 272 273
284 284 284 284 285 285 285 284 284 285 284 284 283 282 281 281 283 287 287 286 285 281 280 281 283 285 286 285 287 287 282 275 276 278 278 278 275 275 271 268 269 270 269
284 284 284 285 285 285 286 286 285 284 283 282 281 279 278 279 280 281 282 283 284 281 283 280 283 283 284 282 277 281 276 276 275 277 279 276 269 269 271 271 269 268 267
284 284 284 284 284 283 283 284 282 281 285 282 281 280 278 277 278 281 281 278 278 280 274 273 272 271 272 273 273 271 270 271 274 274 276 277 276 274 272 270 270 267 266
282 282 282 282 281 281 281 282 286 285 286 285 284 281 279 282 284 284 285 285 285 284 274 275 273 276 273 269 268 269 266 270 275 277 277 277 275 275 272 270 268 267 266
278 277 278 279 278 279 278 279 278 279 286 286 286 285 285 286 286 286 286 286 285 284 275 266 266 267 267 267 267 267 269 269 271 274 275 275 274 274 273 271 270 266 266
273 274 276 276 277 276 276 276 276 277 273 273 280 283 286 286 286 286 286 281 272 280 271 277 277 277 276 276 276 276 277 277 276 276 276 276 275 274 273 271 271 269 267
274 273 273 273 273 272 273 272 271 271 271 270 270 277 273 285 286 286 285 272 268 267 268 278 280 280 279 280 280 280 279 279 279 278 276 276 276 274 273 272 271 269 267
270 272 271 272 271 270 269 270 269 268 268 267 267 266 265 269 268 270 276 278 278 278 278 278 277 275 274 273 272 271 270 270 271 272 273 273 272 270 270 269 269 267 263
270 269 269 269 268 266 266 268 267 268 268 270 274 275 277 269 266 264 264 270 270 271 271 271 269 267 263 259 260 262 263 265 266 267 266 264 264 265 265 266 265 263 261
268 267 266 268 266 268 266 267 267 268 271 273 270 274 274 266 266 264 263 262 260 259 257 257 257 256 256 257 258 258 260 261 262 261 261 260 259 259 260 257 257 257 258
268 269 268 269 273 270 268 266 268 269 267 264 263 263 262 261 259 257 256 254 255 257 257 256 255 255 255 256 255 256 257 258 260 259 258 256 255 254 253 253 252 253 254
268 268 268 266 267 266 266 266 265 264 263 261 261 259 259 256 256 256 255 254 255 254 253 253 253 253 254 255 255 255 255 256 255 253 252 251 251 251 250 250 251 253 256
267 266 270 267 267 266 264 263 262 261 259 259 258 257 255 255 255 253 252 252 252 252 253 253 252 253 255 255 256 256 257 260 255 254 250 249 249 248 248 248 249 249 252
265 265 265 265 264 263 263 261 259 259 258 257 256 254 254 253 251 251 251 251 252 252 253 253 253 254 254 254 254 258 262 263 263 261 252 249 249 249 246 248 248 249 251
Wind_Speed
20 20 19 18 19 20 17 15 14 15 17 19 16 18 20 19 20 17 14 17 15 12 8 11 8 10 7 5 4 4 3 2 5 1 2 2 3 5 5 5 5 5 4
19 19 20 19 19 19 20 19 16 16 17 19 17 13 21 20 20 19 18 17 17 16 14 12 12 8 8 6 5 5 4 4 5 5 3 3 3 5 4 4 4 5 4
18 19 21 21 20 19 18 19 16 16 16 15 16 17 13 21 19 16 15 16 16 15 15 14 11 10 8 5 5 5 5 3 3 4 4 1 3 2 3 3 4 5 4
19 20 22 22 20 18 17 11 17 18 17 16 15 13 9 16 19 18 16 15 15 14 14 12 11 11 10 9 7 7 6 5 3 4 3 3 2 3 2 3 4 3 4
19 8 10 15 17 17 15 15 15 17 15 15 15 14 12 8 13 20 18 17 17 14 10 10 9 9 12 12 8 8 8 5 4 4 3 3 3 2 4 3 4 2 3
9 3 7 12 15 16 16 16 16 15 16 16 15 15 15 9 19 26 22 17 17 14 11 9 9 10 12 16 14 16 12 9 6 4 3 4 4 4 4 4 3 1 3
9 6 8 12 14 15 16 16 16 16 17 16 16 16 13 14 24 25 26 12 15 11 11 10 8 5 8 8 13 16 14 13 6 6 5 6 4 6 4 4 4 4 5
9 10 6 10 13 14 16 16 14 14 17 16 16 15 16 15 25 25 24 12 10 10 11 11 10 9 9 9 8 7 6 6 6 5 6 6 5 5 6 5 5 3 1
9 10 8 8 12 14 15 16 14 16 15 15 15 18 18 16 26 26 19 10 10 10 8 9 9 10 14 16 8 6 5 5 7 14 13 11 12 12 7 5 2 3 3
8 11 9 10 11 15 15 16 13 14 15 12 14 14 17 17 24 23 16 8 9 6 6 6 11 9 16 17 7 6 6 7 5 5 3 7 10 9 14 8 4 5 3
10 11 13 13 13 14 15 13 15 15 15 15 15 13 14 13 16 21 20 9 8 8 7 5 4 13 14 14 12 7 7 4 7 4 4 3 2 2 4 6 8 6 5
11 13 13 13 11 11 16 13 14 15 16 14 14 11 9 8 12 16 17 11 12 7 6 3 4 12 13 12 10 12 14 10 3 2 2 4 5 5 6 6 8 8 8
12 13 13 13 12 12 14 14 12 12 11 11 10 9 7 4 4 13 13 11 12 4 3 6 9 9 10 10 14 13 9 2 3 4 6 8 6 6 3 2 4 5 8
12 12 11 12 12 11 10 10 11 10 9 9 9 8 5 4 3 3 3 4 6 4 5 3 3 5 7 6 2 5 2 4 4 6 8 5 0 2 3 4 4 4 5
11 11 11 10 12 11 10 8 7 6 7 8 6 7 8 6 4 7 7 4 4 5 5 3 2 1 1 2 1 2 2 2 4 4 6 7 7 5 5 4 5 4 7
10 8 7 7 7 8 8 9 17 12 12 12 12 9 2 6 12 14 11 9 10 13 3 3 2 2 3 2 2 3 2 4 6 6 8 8 7 7 7 5 6 7 9
7 5 5 6 5 6 5 6 7 6 14 11 11 9 6 7 9 11 11 11 10 10 2 2 1 0 2 2 2 3 4 4 5 6 7 7 8 8 8 8 7 7 9
4 5 4 3 4 4 4 4 4 5 4 2 7 5 7 7 7 7 7 8 2 3 2 2 1 2 3 4 4 4 5 5 5 6 7 8 8 8 7 8 8 9 8
3 3 3 3 3 4 4 4 4 4 4 3 3 6 6 7 6 5 7 3 2 1 1 1 2 3 2 3 3 4 5 5 6 6 6 7 7 7 8 7 7 8 8
3 5 4 4 3 4 3 4 4 4 4 3 3 1 2 4 4 3 4 2 2 2 2 2 4 5 4 4 4 5 6 6 6 5 6 5 5 4 7 6 6 6 4
3 3 5 4 4 3 3 4 3 4 4 5 4 3 9 5 4 3 3 5 5 5 4 4 4 4 4 3 2 3 3 5 5 5 5 4 5 6 5 5 6 4 3
4 4 3 4 2 4 4 4 4 5 5 6 4 8 14 5 6 6 6 5 4 3 2 2 3 3 2 2 3 3 3 5 4 3 4 5 4 4 4 2 3 2 2
4 5 4 4 5 6 6 4 6 6 6 5 5 6 5 5 4 3 2 1 2 4 4 5 4 3 3 2 2 2 3 4 4 4 4 3 3 3 3 2 2 2 2
5 5 6 5 5 6 6 6 6 7 6 6 6 5 4 3 4 5 4 4 4 4 4 3 2 3 3 3 3 3 4 4 3 3 3 2 3 4 2 2 2 3 4
5 5 6 6 6 6 7 6 6 6 5 5 4 4 4 4 5 4 4 4 3 3 3 3 2 4 4 5 4 6 6 6 5 5 2 2 3 4 3 2 3 3 3
6 6 6 6 6 6 7 7 5 5 6 5 5 4 4 4 3 3 2 2 1 2 3 3 4 5 6 5 6 8 7 8 9 4 4 3 3 4 2 4 5 3 5
Wind_Direction
266 260 253 246 240 238 229 236 225 183 165 171 177 188 165 160 162 160 165 153 151 139 142 146 149 135 134 133 118 102 129 132 104 77 115 189 157 167 192 203 224 229 230
266 257 251 243 235 227 226 219 220 177 166 165 162 189 164 158 157 157 159 157 151 152 148 154 149 139 133 133 127 137 136 79 124 143 179 170 170 207 199 210 226 232 222
268 260 250 235 223 217 213 207 190 165 159 157 158 153 190 152 151 152 161 148 152 149 147 151 145 138 133 135 127 135 114 123 125 144 143 103 196 173 202 240 229 242 242
276 262 248 222 208 200 200 197 168 155 152 152 154 147 183 157 146 143 144 140 140 142 144 137 145 143 158 138 146 132 147 149 146 113 126 178 184 203 167 239 257 222 241
286 245 259 196 183 179 183 150 144 144 140 144 136 135 133 164 144 142 139 142 138 134 127 131 142 136 149 162 152 169 163 158 148 136 164 165 184 167 188 199 230 248 260
343 64 95 114 129 136 133 134 129 129 135 130 134 133 136 140 154 143 138 141 134 139 141 125 130 138 172 167 172 177 178 166 159 151 171 193 197 186 181 178 178 158 281
14 25 100 119 123 129 132 130 128 130 128 126 127 129 124 131 144 134 122 129 129 144 136 134 133 164 161 165 179 184 192 190 169 159 175 198 186 194 169 175 189 193 221
49 39 47 106 113 119 121 121 119 123 127 128 127 124 120 133 128 121 113 125 126 133 135 146 153 172 176 168 172 177 190 206 213 193 202 198 196 184 187 181 191 212 340
55 61 56 82 104 110 108 112 118 121 119 121 126 127 127 130 130 129 120 132 128 126 140 155 168 174 181 180 170 179 201 232 241 238 232 227 232 234 204 122 174 125 268
44 70 68 88 94 99 103 109 113 110 115 121 112 119 123 124 128 128 129 125 126 140 153 163 180 180 181 191 168 173 207 220 198 232 263 258 250 230 220 190 161 201 181
59 68 73 78 87 95 100 104 108 109 110 108 104 103 105 114 133 136 136 144 153 155 165 178 187 190 189 194 191 191 213 168 217 208 232 252 282 223 209 195 197 200 193
63 70 75 78 83 90 98 102 103 106 102 103 107 102 98 105 126 149 158 148 153 147 172 159 173 197 201 205 213 218 229 233 159 198 218 235 236 230 225 220 214 217 224
67 71 72 77 80 87 96 97 94 94 100 104 105 109 108 89 113 162 166 157 156 134 137 178 186 198 214 227 231 231 231 171 185 222 244 254 226 228 202 184 232 238 244
68 73 74 81 83 83 85 91 98 103 108 111 115 117 111 101 118 131 138 137 149 135 154 144 171 198 211 217 238 256 156 189 199 238 254 256 220 147 224 197 234 224 245
69 72 74 73 75 74 64 75 86 61 109 127 127 135 143 165 200 168 163 158 158 147 94 66 64 59 256 261 274 260 269 241 239 238 251 260 255 237 238 208 239 225 239
60 58 60 73 71 74 80 74 56 85 86 104 126 136 136 153 165 181 185 184 178 160 106 167 197 225 244 230 248 264 238 237 244 249 257 259 258 255 246 219 225 226 243
94 71 68 73 79 99 100 110 108 43 68 97 118 133 132 125 151 173 185 185 175 156 100 85 84 269 287 259 245 237 268 225 228 230 241 241 241 243 240 237 226 229 242
71 72 102 111 113 103 100 101 106 119 113 57 24 78 95 103 119 123 125 93 69 140 100 153 222 245 237 234 232 240 258 265 244 244 244 245 245 244 243 239 238 241 239
92 90 84 86 68 73 82 78 73 81 86 98 46 68 14 83 106 110 115 103 126 113 177 269 256 237 237 281 314 328 320 305 289 266 257 254 252 250 252 254 261 249 248
72 95 81 87 85 82 75 91 83 83 78 77 71 43 353 45 50 42 42 57 73 46 34 23 35 38 39 27 2 354 339 325 317 314 312 329 341 308 291 291 288 280 240
107 90 110 91 97 110 118 103 103 98 98 77 69 67 81 99 96 85 82 62 57 51 38 42 42 40 28 17 4 359 338 318 320 339 331 317 301 298 299 295 287 287 273
106 112 96 110 109 82 85 96 96 94 96 99 74 73 82 67 67 64 58 50 39 52 40 99 58 46 25 17 2 342 309 295 298 301 277 270 279 290 293 275 278 272 272
122 119 109 101 99 104 87 76 90 95 95 85 82 81 63 66 68 74 91 64 46 41 28 43 41 3 338 326 302 253 270 270 266 261 271 288 303 309 304 285 282 291 276
116 105 101 96 91 87 90 93 88 82 91 87 85 79 91 97 87 66 54 41 39 24 19 10 350 332 323 308 281 260 256 259 249 258 265 292 295 309 304 292 275 272 278
105 108 113 115 109 107 99 87 86 83 81 89 91 90 76 71 66 50 33 25 21 15 338 330 312 292 290 300 291 299 292 320 295 257 229 228 258 280 272 260 266 272 264
104 103 107 107 105 109 113 114 109 110 113 110 106 95 97 91 78 65 37 17 338 304 302 284 278 292 302 292 303 296 291 293 282 263 199 205 262 286 269 258 262 245 252